Temp
-11 -11 -11 -11 -11 -11 -11 -11 -11 -11 -11 -11 -10 -10 -10 -10 -10 -11 -11 -12 -12 -13 -14 -16 -17 -18 -19 -19 -19 -19 -20 -20 -19 -19 -19 -19 -19 -20 -20 -20 -18 -18 -17 -17 -16 -16 -16
-11 -11 -11 -11 -11 -11 -11 -11 -11 -11 -11 -11 -10 -10 -10 -10 -11 -11 -12 -12 -12 -14 -15 -17 -18 -18 -19 -19 -19 -20 -20 -20 -19 -19 -19 -19 -19 -20 -20 -20 -19 -18 -18 -17 -17 -16 -16
-11 -11 -11 -11 -11 -11 -11 -11 -11 -11 -11 -11 -11 -10 -10 -10 -11 -11 -12 -12 -13 -14 -16 -18 -18 -18 -19 -19 -20 -20 -20 -20 -19 -19 -19 -19 -19 -19 -20 -20 -19 -19 -19 -18 -17 -16 -17
-12 -12 -11 -11 -11 -11 -11 -11 -11 -11 -11 -11 -11 -10 -10 -11 -11 -12 -12 -12 -14 -15 -17 -18 -19 -19 -19 -19 -19 -19 -19 -19 -19 -19 -19 -19 -19 -19 -19 -19 -19 -19 -19 -18 -17 -16 -17
-12 -12 -12 -12 -11 -11 -12 -11 -12 -11 -11 -11 -11 -11 -11 -11 -11 -12 -12 -13 -14 -15 -17 -18 -19 -19 -19 -19 -19 -19 -19 -19 -19 -19 -19 -19 -19 -19 -19 -19 -19 -19 -18 -18 -19 -18 -18
-12 -12 -12 -12 -12 -11 -12 -12 -12 -12 -11 -12 -11 -11 -11 -12 -12 -12 -12 -13 -14 -15 -17 -18 -19 -19 -19 -19 -19 -20 -20 -20 -19 -19 -19 -19 -18 -19 -19 -19 -18 -18 -18 -18 -18 -18 -18
-12 -12 -12 -12 -12 -12 -12 -12 -12 -12 -12 -12 -12 -11 -12 -12 -12 -12 -12 -13 -14 -15 -17 -18 -19 -19 -19 -19 -19 -19 -19 -19 -19 -19 -19 -19 -19 -19 -19 -19 -19 -19 -19 -19 -19 -19 -18
-12 -12 -12 -12 -12 -12 -12 -12 -12 -12 -12 -12 -12 -12 -12 -12 -12 -12 -12 -13 -14 -15 -16 -17 -18 -19 -19 -19 -19 -19 -19 -19 -19 -19 -19 -19 -19 -18 -18 -19 -19 -19 -18 -19 -19 -19 -19
-13 -13 -12 -12 -12 -12 -12 -12 -12 -12 -12 -12 -12 -12 -12 -12 -12 -12 -13 -13 -13 -14 -16 -17 -18 -19 -19 -19 -19 -19 -19 -19 -19 -19 -19 -19 -19 -19 -18 -18 -18 -19 -19 -19 -19 -20 -19
-13 -13 -13 -13 -13 -12 -12 -13 -12 -12 -12 -12 -12 -12 -12 -12 -12 -13 -13 -13 -13 -14 -15 -16 -17 -18 -19 -19 -19 -19 -19 -19 -19 -19 -19 -19 -19 -19 -19 -19 -19 -19 -19 -19 -19 -19 -19
-13 -14 -14 -13 -13 -13 -13 -13 -13 -13 -12 -13 -13 -12 -12 -12 -12 -13 -13 -13 -13 -14 -14 -16 -17 -18 -18 -19 -20 -20 -19 -19 -19 -19 -19 -19 -19 -20 -20 -19 -19 -20 -20 -19 -19 -18 -18
-14 -14 -14 -14 -14 -13 -13 -13 -13 -13 -13 -13 -13 -13 -12 -12 -12 -13 -13 -13 -14 -14 -14 -16 -16 -17 -18 -18 -19 -19 -20 -20 -20 -19 -19 -19 -19 -20 -20 -19 -20 -20 -19 -19 -19 -18 -18
-14 -14 -14 -14 -14 -14 -14 -13 -13 -13 -13 -13 -13 -13 -13 -12 -12 -13 -13 -13 -14 -14 -14 -15 -16 -17 -17 -17 -18 -19 -19 -20 -20 -20 -20 -20 -20 -20 -20 -20 -20 -19 -19 -18 -18 -18 -18
-14 -14 -14 -14 -14 -14 -14 -14 -14 -13 -13 -13 -13 -13 -13 -13 -13 -13 -13 -13 -13 -14 -14 -14 -15 -16 -17 -16 -17 -17 -18 -19 -20 -20 -20 -20 -20 -20 -20 -19 -19 -19 -19 -18 -18 -18 -18
-14 -14 -14 -14 -14 -14 -14 -14 -14 -14 -13 -13 -13 -13 -13 -13 -13 -13 -13 -13 -14 -14 -14 -14 -15 -16 -16 -16 -16 -17 -17 -18 -19 -19 -20 -20 -20 -20 -19 -19 -19 -19 -18 -18 -18 -17 -17
-14 -14 -14 -14 -14 -14 -14 -14 -14 -14 -14 -14 -13 -13 -13 -13 -13 -13 -13 -13 -13 -14 -14 -14 -14 -15 -16 -16 -16 -16 -16 -17 -18 -18 -19 -19 -19 -19 -19 -19 -19 -19 -19 -18 -18 -17 -16
-15 -15 -15 -14 -14 -14 -14 -14 -14 -14 -14 -14 -14 -14 -14 -14 -14 -14 -13 -13 -13 -13 -14 -14 -14 -14 -15 -15 -16 -16 -16 -16 -16 -17 -18 -18 -19 -18 -18 -19 -19 -19 -19 -18 -17 -17 -16
-15 -15 -15 -15 -15 -14 -15 -15 -15 -14 -14 -14 -14 -14 -14 -14 -14 -14 -14 -14 -13 -13 -13 -14 -14 -14 -14 -15 -15 -15 -16 -16 -16 -16 -16 -16 -17 -17 -18 -18 -18 -18 -18 -17 -17 -16 -16
-15 -15 -15 -15 -15 -15 -15 -15 -15 -15 -15 -15 -15 -15 -14 -14 -14 -14 -14 -14 -14 -13 -13 -13 -14 -14 -15 -14 -15 -15 -15 -15 -16 -16 -15 -15 -15 -16 -16 -16 -17 -17 -16 -16 -16 -16 -16
-15 -15 -15 -15 -15 -15 -15 -15 -15 -15 -15 -15 -15 -15 -15 -15 -14 -14 -14 -14 -14 -14 -14 -13 -13 -14 -14 -15 -14 -15 -15 -14 -15 -15 -15 -15 -15 -15 -15 -15 -15 -15 -16 -16 -16 -16 -15
-15 -15 -15 -15 -15 -16 -15 -15 -15 -15 -15 -15 -15 -15 -15 -15 -15 -14 -14 -14 -14 -14 -14 -14 -13 -13 -14 -14 -14 -14 -14 -15 -15 -14 -14 -15 -15 -15 -15 -15 -15 -15 -15 -15 -14 -14 -14
-16 -16 -16 -16 -16 -16 -16 -16 -16 -15 -15 -15 -15 -15 -15 -15 -15 -15 -14 -14 -14 -14 -14 -14 -14 -14 -13 -14 -14 -14 -14 -14 -14 -14 -15 -15 -14 -14 -15 -15 -15 -15 -15 -15 -14 -14 -14
-16 -17 -16 -16 -16 -16 -16 -16 -16 -16 -16 -16 -16 -15 -16 -15 -15 -15 -15 -15 -14 -14 -14 -14 -14 -14 -14 -14 -14 -14 -14 -14 -14 -14 -14 -14 -14 -14 -14 -14 -15 -14 -14 -14 -14 -14 -14
-17 -17 -17 -17 -17 -17 -17 -17 -16 -16 -16 -16 -16 -16 -16 -16 -15 -15 -15 -15 -15 -15 -14 -14 -14 -14 -14 -14 -14 -14 -14 -14 -14 -14 -14 -14 -14 -14 -14 -14 -14 -14 -14 -14 -14 -14 -14
-18 -18 -18 -18 -17 -17 -17 -17 -17 -17 -17 -16 -16 -16 -16 -16 -15 -15 -15 -15 -15 -15 -15 -14 -14 -14 -14 -14 -14 -14 -14 -14 -14 -14 -14 -14 -14 -14 -13 -14 -13 -13 -14 -14 -14 -14 -14
-18 -18 -18 -18 -17 -17 -17 -17 -17 -17 -17 -17 -16 -16 -15 -15 -15 -15 -15 -15 -15 -15 -15 -15 -15 -15 -15 -14 -14 -14 -14 -14 -14 -14 -14 -14 -14 -14 -14 -13 -13 -13 -13 -13 -13 -13 -13
-18 -18 -19 -18 -17 -17 -17 -17 -17 -17 -17 -17 -16 -16 -15 -15 -15 -15 -15 -15 -15 -15 -15 -15 -15 -15 -15 -15 -14 -14 -14 -14 -14 -14 -14 -14 -14 -14 -14 -13 -13 -14 -14 -14 -14 -13 -14
-17 -18 -18 -18 -18 -17 -17 -17 -18 -18 -17 -17 -17 -16 -16 -15 -15 -16 -16 -15 -16 -16 -16 -16 -16 -15 -15 -15 -15 -15 -14 -14 -14 -14 -15 -15 -15 -14 -14 -14 -14 -14 -14 -14 -13 -13 -13
-18 -18 -18 -18 -18 -18 -18 -18 -18 -18 -18 -17 -16 -16 -16 -16 -16 -16 -16 -16 -16 -16 -16 -16 -16 -16 -16 -16 -15 -15 -15 -15 -15 -15 -15 -15 -15 -15 -15 -15 -15 -15 -14 -14 -13 -13 -13
Height
5835 5835 5833 5831 5829 5826 5822 5817 5813 5810 5806 5802 5798 5793 5789 5785 5780 5774 5766 5757 5746 5733 5719 5705 5692 5684 5679 5675 5671 5667 5663 5659 5659 5659 5659 5659 5661 5663 5666 5671 5677 5683 5694 5701 5710 5718 5728
5835 5834 5832 5830 5828 5825 5821 5817 5813 5809 5805 5802 5798 5793 5788 5784 5778 5771 5764 5754 5742 5728 5713 5699 5689 5681 5677 5673 5669 5665 5661 5659 5658 5659 5658 5658 5659 5661 5663 5668 5674 5679 5687 5696 5699 5711 5723
5834 5832 5831 5829 5827 5824 5820 5816 5812 5808 5805 5801 5797 5793 5788 5783 5776 5769 5761 5751 5738 5725 5710 5699 5688 5680 5675 5672 5668 5664 5661 5659 5659 5658 5657 5656 5656 5659 5663 5665 5670 5676 5683 5688 5699 5709 5717
5832 5831 5830 5827 5825 5823 5820 5816 5812 5808 5804 5801 5797 5793 5788 5782 5775 5768 5759 5749 5738 5724 5711 5700 5690 5681 5675 5671 5667 5663 5660 5659 5658 5657 5656 5654 5654 5657 5661 5665 5668 5673 5681 5687 5696 5706 5712
5830 5829 5828 5826 5823 5821 5819 5816 5812 5808 5804 5801 5797 5793 5788 5782 5775 5768 5758 5748 5738 5725 5713 5702 5692 5684 5678 5673 5668 5664 5660 5659 5658 5657 5658 5656 5656 5659 5661 5665 5669 5674 5679 5685 5691 5701 5709
5827 5826 5825 5824 5821 5819 5817 5815 5811 5808 5805 5801 5797 5793 5788 5782 5776 5768 5759 5748 5739 5727 5715 5707 5694 5688 5680 5675 5670 5666 5664 5661 5659 5659 5660 5660 5660 5661 5663 5666 5672 5676 5679 5684 5692 5702 5709
5825 5823 5823 5821 5819 5817 5815 5813 5811 5807 5804 5801 5797 5793 5789 5783 5776 5769 5761 5750 5741 5731 5718 5707 5697 5688 5682 5677 5673 5670 5668 5665 5663 5663 5664 5664 5665 5666 5668 5672 5675 5677 5680 5686 5691 5698 5707
5822 5820 5820 5818 5816 5814 5814 5812 5810 5807 5803 5800 5797 5793 5789 5784 5777 5770 5762 5753 5742 5734 5721 5709 5700 5692 5685 5680 5677 5674 5671 5669 5667 5666 5665 5667 5667 5668 5670 5673 5675 5678 5680 5684 5690 5697 5705
5819 5818 5817 5815 5814 5812 5811 5810 5808 5806 5803 5800 5797 5793 5789 5784 5778 5772 5764 5755 5745 5735 5725 5714 5705 5697 5689 5684 5680 5678 5676 5673 5671 5671 5671 5671 5672 5672 5674 5674 5676 5679 5683 5687 5691 5696 5703
5817 5816 5815 5814 5812 5810 5809 5808 5807 5804 5802 5798 5796 5793 5789 5784 5780 5774 5767 5758 5748 5739 5729 5719 5711 5703 5695 5687 5683 5680 5679 5678 5677 5676 5676 5676 5675 5675 5676 5677 5678 5682 5685 5689 5694 5700 5705
5814 5813 5812 5812 5811 5808 5806 5805 5804 5802 5800 5797 5794 5791 5789 5784 5780 5775 5770 5761 5752 5743 5735 5725 5716 5708 5701 5694 5688 5684 5682 5681 5679 5678 5678 5677 5677 5679 5680 5682 5684 5686 5689 5693 5696 5700 5706
5810 5810 5810 5809 5808 5806 5804 5802 5801 5800 5799 5796 5794 5790 5787 5784 5780 5776 5771 5764 5757 5748 5740 5731 5723 5716 5709 5701 5695 5690 5687 5685 5682 5680 5679 5680 5682 5684 5684 5686 5687 5690 5693 5695 5697 5701 5705
5806 5806 5807 5807 5806 5804 5802 5800 5799 5797 5796 5795 5792 5789 5786 5783 5780 5776 5772 5767 5761 5751 5744 5738 5729 5722 5717 5710 5703 5697 5694 5690 5688 5686 5684 5684 5686 5688 5689 5690 5691 5693 5694 5696 5700 5703 5708
5801 5802 5803 5803 5802 5802 5800 5798 5796 5794 5793 5792 5791 5789 5785 5782 5779 5776 5773 5769 5763 5756 5749 5742 5735 5728 5723 5718 5712 5707 5702 5699 5695 5692 5690 5689 5690 5692 5693 5695 5696 5697 5700 5703 5705 5707 5711
5796 5797 5798 5798 5798 5798 5797 5796 5794 5792 5790 5789 5788 5787 5785 5781 5778 5776 5774 5770 5766 5760 5755 5748 5742 5734 5729 5724 5720 5716 5710 5706 5703 5700 5699 5697 5696 5695 5696 5698 5701 5701 5703 5706 5708 5710 5713
5789 5790 5792 5793 5793 5793 5793 5792 5791 5789 5787 5786 5785 5784 5783 5780 5777 5775 5772 5770 5766 5762 5757 5752 5747 5741 5734 5729 5725 5721 5718 5716 5713 5709 5706 5704 5704 5703 5702 5703 5704 5705 5708 5710 5710 5713 5716
5782 5783 5785 5786 5788 5788 5787 5787 5786 5785 5784 5783 5782 5780 5779 5778 5776 5774 5771 5769 5766 5763 5759 5756 5751 5746 5741 5735 5730 5726 5723 5722 5719 5718 5716 5715 5713 5712 5710 5709 5708 5710 5711 5713 5714 5716 5717
5774 5775 5777 5779 5781 5781 5781 5781 5781 5781 5779 5779 5778 5778 5777 5775 5774 5771 5769 5767 5765 5763 5760 5757 5753 5749 5745 5742 5736 5731 5728 5725 5723 5721 5721 5721 5720 5718 5718 5716 5716 5716 5716 5716 5718 5720 5721
5764 5766 5768 5770 5772 5774 5775 5774 5775 5774 5774 5773 5773 5773 5772 5770 5769 5768 5766 5765 5762 5761 5759 5756 5753 5751 5748 5744 5742 5737 5733 5730 5727 5726 5724 5723 5723 5723 5723 5724 5722 5722 5723 5724 5724 5725 5725
5754 5756 5758 5761 5763 5765 5766 5767 5767 5767 5767 5768 5768 5768 5767 5765 5764 5763 5762 5761 5759 5758 5756 5755 5753 5750 5748 5745 5742 5740 5738 5734 5731 5729 5727 5726 5725 5724 5725 5725 5726 5725 5725 5725 5726 5727 5727
5741 5744 5747 5750 5753 5755 5757 5758 5759 5759 5759 5761 5761 5762 5760 5759 5758 5757 5757 5756 5755 5754 5753 5751 5750 5748 5747 5745 5742 5740 5738 5736 5734 5732 5731 5729 5728 5727 5726 5726 5725 5725 5726 5727 5726 5727 5728
5728 5732 5734 5738 5741 5744 5746 5748 5748 5750 5750 5751 5752 5753 5753 5752 5751 5751 5749 5749 5748 5748 5747 5746 5745 5745 5744 5742 5741 5739 5737 5735 5734 5732 5731 5730 5729 5728 5727 5726 5725 5725 5724 5724 5723 5724 5724
5714 5718 5722 5725 5728 5731 5734 5737 5738 5740 5742 5742 5742 5743 5742 5743 5742 5742 5742 5741 5741 5740 5740 5739 5739 5739 5740 5739 5738 5736 5735 5734 5732 5731 5729 5728 5727 5727 5726 5725 5725 5725 5724 5723 5722 5721 5721
5697 5702 5706 5711 5714 5718 5721 5725 5727 5728 5730 5731 5732 5733 5733 5732 5732 5732 5731 5731 5732 5732 5732 5731 5731 5732 5734 5733 5733 5732 5732 5731 5729 5728 5727 5726 5724 5723 5723 5722 5722 5721 5719 5719 5718 5717 5716
5678 5684 5690 5695 5700 5703 5707 5712 5714 5715 5718 5720 5720 5721 5721 5722 5722 5721 5719 5719 5720 5722 5722 5722 5722 5723 5725 5726 5726 5726 5726 5726 5725 5724 5723 5722 5720 5719 5718 5718 5719 5717 5715 5713 5712 5712 5709
5659 5666 5672 5678 5684 5688 5693 5697 5701 5703 5705 5707 5708 5708 5708 5710 5712 5710 5708 5708 5709 5710 5712 5712 5712 5713 5715 5717 5717 5718 5719 5718 5718 5719 5718 5716 5715 5715 5712 5711 5711 5712 5709 5707 5706 5705 5703
5640 5648 5655 5661 5668 5674 5679 5683 5686 5688 5690 5693 5696 5696 5697 5698 5700 5700 5699 5699 5698 5699 5702 5702 5703 5704 5705 5706 5707 5709 5709 5710 5710 5710 5711 5710 5708 5707 5704 5703 5704 5703 5699 5697 5697 5697 5693
5622 5630 5638 5645 5651 5657 5664 5669 5672 5675 5677 5679 5682 5684 5685 5686 5688 5690 5690 5689 5689 5690 5692 5694 5695 5695 5696 5697 5698 5698 5699 5701 5701 5702 5701 5701 5700 5699 5697 5696 5695 5694 5690 5688 5686 5683 5682
5604 5613 5621 5628 5635 5643 5648 5654 5658 5659 5662 5665 5669 5670 5671 5674 5678 5679 5681 5680 5680 5682 5683 5684 5685 5686 5686 5687 5688 5688 5689 5691 5692 5692 5692 5690 5691 5689 5689 5687 5686 5682 5679 5675 5673 5671 5670
Wind_Speed
5 8 11 14 17 20 22 23 23 24 25 25 27 27 27 27 29 32 37 42 47 53 56 50 40 27 21 19 19 18 16 7 7 2 7 12 15 24 28 28 29 38 51 54 51 46 42
4 8 11 13 16 19 23 23 22 23 25 25 27 26 26 28 30 33 39 44 49 54 55 50 39 22 21 18 15 14 11 8 10 6 7 9 14 16 20 30 34 30 40 49 52 50 43
6 8 12 14 16 18 22 23 22 22 23 24 25 25 26 28 31 36 40 44 49 54 51 46 36 23 21 16 15 11 11 10 6 6 5 9 14 16 16 19 34 29 32 39 46 47 44
8 9 12 15 16 17 20 23 22 22 23 23 23 24 25 28 33 37 41 44 47 51 47 42 33 28 20 18 16 10 10 8 8 7 3 5 10 14 20 19 20 29 31 34 39 43 46
9 12 13 15 16 16 18 21 21 21 23 21 23 24 25 29 34 38 42 44 47 48 43 40 33 26 20 18 18 13 10 6 7 8 2 8 8 8 18 16 20 25 24 33 34 39 45
10 13 13 15 15 16 16 18 20 20 22 21 22 23 26 30 34 38 42 44 46 46 43 39 38 25 21 20 16 15 13 9 7 4 6 10 12 18 15 15 17 13 15 26 33 34 45
13 14 15 14 15 16 15 16 19 18 18 19 20 22 26 29 32 36 41 44 46 45 44 43 41 36 22 20 18 15 14 13 10 6 4 9 10 7 8 14 15 18 19 19 27 36 42
14 14 15 15 14 14 14 15 17 16 15 17 20 22 25 28 31 35 40 43 43 45 44 44 44 42 31 19 16 11 14 15 7 9 8 8 8 6 11 8 9 12 16 24 31 34 41
13 13 14 15 14 15 13 13 14 16 15 15 17 21 23 26 28 33 37 41 42 44 45 45 44 43 39 27 14 10 11 15 18 12 10 8 5 6 5 6 10 8 13 21 24 34 40
12 13 12 14 15 15 15 13 13 14 15 15 15 17 21 24 26 30 34 38 40 44 46 46 43 43 40 36 23 15 11 7 8 10 7 6 4 5 7 3 9 11 17 20 22 30 35
12 11 12 14 15 15 15 14 12 13 15 16 15 15 19 22 24 26 30 35 38 40 43 44 41 42 40 38 30 20 15 9 7 8 6 3 6 7 7 7 9 15 18 20 22 27 33
13 11 11 12 15 16 15 15 13 13 14 17 16 14 15 19 22 23 27 30 34 37 37 37 37 38 38 38 35 29 18 11 8 8 11 14 15 9 13 13 14 16 18 18 21 25 29
17 14 12 12 14 15 16 16 14 13 14 15 17 15 14 16 19 22 24 28 31 35 37 35 34 34 34 36 36 32 26 21 17 13 14 14 16 10 12 10 11 13 17 15 18 19 19
22 19 17 15 13 15 16 16 16 14 13 13 16 17 14 14 16 19 23 26 29 31 32 34 31 30 29 31 32 31 29 22 17 17 17 17 16 16 15 12 11 14 13 12 8 11 12
26 24 21 19 16 15 16 17 16 16 15 14 14 16 16 15 15 17 19 23 25 27 28 29 28 26 25 25 28 29 28 25 19 13 14 15 18 20 19 18 17 18 16 12 13 13 11
31 29 26 23 21 18 17 17 18 17 16 15 14 16 17 18 18 17 17 20 21 23 24 25 26 24 22 21 22 24 27 26 21 19 13 14 17 18 16 16 18 14 9 9 12 12 15
35 33 31 29 26 23 21 19 18 19 17 17 15 15 17 18 19 20 19 17 19 21 22 21 21 23 21 19 19 18 20 22 22 19 16 10 8 9 9 12 13 9 7 8 12 14 20
41 39 37 34 31 28 26 24 23 21 20 18 18 17 18 18 19 20 21 18 16 19 20 19 18 18 19 18 17 16 14 15 17 17 17 15 12 7 6 6 5 4 1 5 9 15 16
47 45 42 39 36 34 32 29 27 25 24 21 21 21 20 20 22 21 21 21 19 17 17 19 16 16 15 15 15 14 13 12 11 11 11 11 10 8 7 5 3 1 6 8 6 7 6
54 51 48 46 42 39 37 35 32 30 28 28 27 27 27 26 24 23 23 22 22 19 18 16 17 14 13 11 11 11 11 10 9 7 6 5 4 4 4 2 4 4 4 6 6 7 9
58 56 53 50 48 45 41 39 38 36 35 35 34 33 32 32 28 27 25 24 24 24 21 19 17 15 12 10 9 9 9 8 8 7 5 3 2 2 3 4 4 6 6 8 9 8 8
64 59 57 54 52 51 46 44 42 41 41 44 42 38 37 36 33 31 31 28 27 25 25 24 23 18 15 12 9 8 10 10 8 7 6 5 4 3 3 5 6 7 7 8 10 10 10
66 64 62 59 58 56 53 49 46 45 44 42 43 43 42 37 38 36 37 36 30 27 26 26 27 25 20 16 15 13 11 11 11 12 11 11 10 9 9 8 7 8 8 11 13 14 13
68 70 72 69 68 65 61 56 49 49 47 49 48 48 45 42 41 40 40 41 38 30 27 28 29 29 28 23 20 18 19 16 15 15 13 13 14 15 14 13 13 14 15 16 17 19 20
72 73 72 71 70 71 62 58 55 52 52 54 53 50 47 43 42 40 41 40 38 37 31 29 30 30 30 30 27 23 22 21 21 19 18 18 18 17 17 17 15 17 20 21 21 24 26
86 81 82 80 68 66 65 61 60 58 55 55 54 50 45 42 41 40 39 37 36 36 36 31 31 30 31 32 32 30 27 25 25 23 24 24 25 25 25 25 24 22 24 27 28 28 30
85 78 74 76 72 69 67 64 63 61 59 57 54 51 45 45 42 41 37 36 35 33 33 33 32 32 32 33 34 33 32 31 30 29 28 30 31 31 33 34 31 31 34 36 37 37 36
72 79 81 74 70 64 61 56 57 58 55 52 50 51 48 44 41 38 35 32 29 28 30 32 33 32 34 35 35 36 37 35 35 34 34 34 35 34 35 35 36 36 39 41 43 45 45
67 67 70 71 66 63 59 55 56 54 52 52 49 47 47 42 38 37 33 32 30 30 31 32 34 34 37 36 37 38 39 38 38 38 37 39 37 39 39 39 39 40 43 45 47 48 49
Wind_Direction
358 350 355 356 357 1 4 2 0 359 1 7 6 3 359 352 347 343 344 344 345 345 344 347 344 333 331 329 327 323 324 336 261 186 217 227 225 223 227 205 200 201 208 203 203 202 205
332 334 339 344 347 356 1 2 1 359 360 4 4 3 358 352 349 348 351 351 350 350 349 353 351 343 341 342 328 334 332 340 296 278 286 242 213 212 200 199 201 194 199 205 206 205 206
311 323 331 334 338 349 357 359 1 360 359 2 5 3 359 354 351 353 357 357 356 353 354 357 359 358 347 347 336 325 328 326 294 282 277 223 210 207 201 200 198 192 196 204 210 209 204
305 322 328 327 332 340 350 356 359 1 1 2 6 6 1 359 357 359 1 2 1 357 359 3 2 5 8 1 357 340 320 324 320 315 328 236 224 209 181 198 193 195 196 201 203 207 203
308 318 323 323 324 331 341 352 357 2 3 6 9 8 5 4 2 3 5 7 6 2 4 7 8 8 9 2 7 6 346 352 334 336 77 58 115 159 183 179 192 180 204 208 203 201 195
299 309 315 319 319 323 331 348 354 2 4 6 10 7 6 7 6 6 9 10 10 8 8 11 17 10 9 13 11 7 3 14 54 62 80 60 93 121 176 160 166 176 198 205 210 201 193
299 309 310 310 310 315 323 340 351 357 3 3 8 7 5 8 9 9 12 13 14 12 12 17 21 22 15 17 29 33 38 41 65 80 93 118 90 73 149 180 190 204 209 208 203 190 192
298 306 309 312 309 308 316 329 344 348 356 359 1 3 4 7 9 11 14 17 18 16 16 19 21 23 24 24 35 31 23 29 87 60 53 117 148 121 168 201 191 199 203 201 197 188 191
299 308 313 315 311 310 312 318 336 345 347 350 352 356 360 4 7 10 15 19 21 20 20 21 21 21 26 28 20 25 25 47 56 70 80 73 91 131 157 163 189 187 172 176 183 184 196
290 304 313 316 317 315 313 312 324 342 340 347 352 353 355 357 0 8 13 19 23 23 26 25 23 24 25 27 36 42 37 36 46 65 76 83 104 109 119 156 173 157 161 166 184 191 200
274 293 312 319 321 325 318 313 314 329 340 338 350 355 350 351 355 4 10 17 23 25 27 29 26 25 25 32 33 43 46 48 46 21 27 131 132 126 111 110 151 145 158 171 174 190 199
261 278 299 316 323 329 328 317 309 315 332 339 340 349 352 349 352 360 7 14 20 29 31 33 34 31 28 33 36 39 48 47 40 59 101 106 104 107 126 116 140 145 164 172 179 189 198
252 264 279 297 314 326 332 327 314 306 317 334 339 338 344 345 348 356 2 9 16 27 32 32 39 39 37 36 34 37 40 48 58 82 127 113 138 125 123 146 123 154 157 165 171 179 183
252 259 269 280 296 312 323 330 327 309 305 317 330 338 336 338 339 353 355 2 11 20 30 32 37 44 41 44 37 36 39 41 55 81 104 118 125 125 116 107 118 121 124 136 142 144 162
250 257 264 272 281 295 309 318 327 323 308 307 316 326 336 331 335 341 349 357 2 10 20 32 32 41 47 49 47 42 41 41 47 72 96 109 123 130 129 134 136 133 128 128 135 134 151
248 254 260 266 273 282 290 302 313 319 318 310 308 314 322 334 333 327 337 345 351 358 9 20 33 33 43 47 52 50 47 46 44 53 72 102 119 128 140 141 135 122 127 137 141 157 168
249 253 258 263 268 273 282 288 294 304 310 310 308 308 313 321 327 331 323 333 342 346 353 5 19 31 31 40 50 53 59 56 51 47 49 53 89 116 133 143 148 128 134 161 175 185 186
249 253 256 260 264 268 274 280 286 290 297 302 307 305 306 310 317 323 328 320 324 334 339 347 0 15 31 30 38 46 47 58 62 59 53 41 42 70 103 106 86 62 70 183 194 200 202
251 251 255 258 261 265 268 274 279 285 286 289 297 300 302 300 304 312 319 324 316 315 325 329 340 353 7 27 31 39 40 45 51 59 64 64 60 44 45 41 48 85 207 216 224 225 276
249 251 254 256 259 262 265 269 274 279 284 287 295 295 298 294 294 297 302 310 316 307 301 311 317 330 343 -0 21 29 38 39 38 38 35 40 56 78 86 45 344 292 259 254 297 292 263
249 250 252 254 259 261 263 264 270 274 278 281 288 289 291 293 284 286 286 293 302 306 292 289 292 300 314 332 356 8 13 23 33 35 25 15 347 284 259 261 252 236 231 240 249 249 254
251 249 251 252 254 259 262 263 268 273 276 282 284 286 292 288 286 281 281 282 286 293 293 278 277 278 285 292 310 343 355 350 350 349 351 344 329 321 301 293 281 271 259 253 257 257 253
246 249 250 250 250 253 257 262 264 268 272 273 279 285 288 285 284 284 279 276 276 280 287 277 269 271 269 267 277 291 305 319 325 330 327 318 313 310 306 292 273 278 274 277 275 275 274
243 246 248 250 252 255 254 257 264 266 269 273 277 282 282 279 282 284 281 273 271 269 279 276 267 264 268 265 264 273 285 293 300 311 313 311 311 309 306 300 299 297 291 290 289 289 287
240 243 245 251 257 254 255 257 259 264 266 271 276 278 280 280 279 284 284 280 269 266 266 271 264 260 263 267 270 272 277 283 291 299 301 303 304 305 302 294 295 298 296 296 294 295 297
237 243 245 246 249 252 253 254 255 260 266 271 272 277 277 277 278 286 284 280 274 265 259 264 260 256 257 262 266 270 272 274 281 288 295 298 301 301 300 299 300 295 288 288 289 286 285
240 240 247 249 249 252 253 254 256 258 261 269 273 271 272 275 276 283 282 280 273 262 256 259 256 254 255 257 261 266 268 273 275 279 282 286 288 291 293 294 296 296 295 291 289 287 291
246 241 240 248 252 257 257 260 267 266 270 268 267 270 272 270 271 277 276 271 268 259 256 261 260 256 256 259 262 264 268 270 275 279 282 283 283 285 285 289 292 293 292 291 291 291 292
242 244 247 247 253 259 263 261 263 262 263 265 267 268 266 262 262 264 267 265 263 263 263 261 260 259 260 261 263 266 270 273 277 279 281 282 283 284 286 288 290 287 285 286 288 289 290